| time (UTC) | temp F | wind direction | speed knots | gust knots | rain 1hr in | rain 24hr in | rain mn in | humidity % | barometer mb |
| 20260905065052 | 86 | 300 | 4.3 | 16.5 | 0.00 | 0.00 | 0.00 | 32 | 1007.0 |
| 20260905064611 | 86 | 262 | 7.0 | 20.0 | 0.00 | 0.00 | 0.00 | 32 | 1007.0 |
| 20260905064052 | 86 | 249 | 11.3 | 23.5 | 0.00 | 0.00 | 0.00 | 31 | 1006.8 |
| 20260905063551 | 86 | 261 | 9.6 | 23.5 | 0.00 | 0.00 | 0.00 | 31 | 1006.6 |
| 20260905063054 | 86 | 302 | 9.6 | 26.1 | 0.00 | 0.00 | 0.00 | 31 | 1006.6 |
| 20260905062551 | 86 | 247 | 13.0 | 26.1 | 0.00 | 0.00 | 0.00 | 31 | 1006.6 |
| 20260905062051 | 86 | 242 | 12.2 | 26.1 | 0.00 | 0.00 | 0.00 | 31 | 1006.6 |
| 20260905061551 | 86 | 284 | 9.6 | 26.1 | 0.00 | 0.00 | 0.00 | 31 | 1006.7 |
| 20260905061050 | 86 | 263 | 14.8 | 26.1 | 0.00 | 0.00 | 0.00 | 31 | 1006.6 |
| 20260905060553 | 86 | 250 | 10.4 | 20.9 | 0.00 | 0.00 | 0.00 | 31 | 1006.6 |
| 20260905060051 | 87 | 273 | 9.6 | 20.9 | 0.00 | 0.00 | 0.00 | 31 | 1006.7 |
| 20260905055551 | 87 | 220 | 8.7 | 15.6 | 0.00 | 0.00 | 0.00 | 31 | 1006.5 |
| 20260905055050 | 87 | 268 | 9.6 | 22.6 | 0.00 | 0.00 | 0.00 | 31 | 1006.4 |
| 20260905054644 | 86 | 217 | 11.3 | 22.6 | 0.00 | 0.00 | 0.00 | 31 | 1006.5 |
| 20260905054050 | 87 | 261 | 10.4 | 21.7 | 0.00 | 0.00 | 0.00 | 30 | 1006.5 |
| 20260905053550 | 87 | 297 | 10.4 | 22.6 | 0.00 | 0.00 | 0.00 | 30 | 1006.5 |
| 20260905053050 | 87 | 257 | 12.2 | 22.6 | 0.00 | 0.00 | 0.00 | 30 | 1006.5 |
| 20260905052549 | 87 | 287 | 10.4 | 20.0 | 0.00 | 0.00 | 0.00 | 30 | 1006.6 |
| 20260905052049 | 87 | 241 | 9.6 | 20.0 | 0.00 | 0.00 | 0.00 | 30 | 1006.6 |
| 20260905051548 | 87 | 309 | 9.6 | 16.5 | 0.00 | 0.00 | 0.00 | 30 | 1006.7 |
| 20260905051047 | 87 | 272 | 7.8 | 24.3 | 0.00 | 0.00 | 0.00 | 30 | 1006.7 |
| 20260905050547 | 87 | 242 | 8.7 | 24.3 | 0.00 | 0.00 | 0.00 | 30 | 1006.8 |
| 20260905050047 | 87 | 265 | 8.7 | 22.6 | 0.00 | 0.00 | 0.00 | 30 | 1006.9 |
| 20260905045546 | 87 | 253 | 10.4 | 22.6 | 0.00 | 0.00 | 0.00 | 30 | 1006.8 |
| 20260905045046 | 87 | 241 | 9.6 | 22.6 | 0.00 | 0.00 | 0.00 | 30 | 1007.0 |
| 20260905044602 | 87 | 259 | 9.6 | 22.6 | 0.00 | 0.00 | 0.00 | 30 | 1006.9 |
| 20260905044045 | 87 | 260 | 13.0 | 22.6 | 0.00 | 0.00 | 0.00 | 29 | 1007.0 |
| 20260905043545 | 87 | 234 | 11.3 | 21.7 | 0.00 | 0.00 | 0.00 | 30 | 1007.1 |
| 20260905043044 | 88 | 250 | 7.0 | 20.9 | 0.00 | 0.00 | 0.00 | 30 | 1007.1 |
| 20260905042543 | 87 | 256 | 12.2 | 20.9 | 0.00 | 0.00 | 0.00 | 29 | 1007.3 |
| 20260905042043 | 88 | 272 | 9.6 | 21.7 | 0.00 | 0.00 | 0.00 | 30 | 1007.4 |
| 20260905041542 | 87 | 260 | 8.7 | 21.7 | 0.00 | 0.00 | 0.00 | 30 | 1007.5 |
| 20260905041041 | 88 | 265 | 9.6 | 19.1 | 0.00 | 0.00 | 0.00 | 30 | 1007.5 |
| 20260905040542 | 88 | 247 | 7.0 | 17.4 | 0.00 | 0.00 | 0.00 | 31 | 1007.7 |
| 20260905040040 | 88 | 227 | 7.0 | 17.4 | 0.00 | 0.00 | 0.00 | 31 | 1007.8 |
| 20260905035538 | 87 | 238 | 4.3 | 15.6 | 0.00 | 0.00 | 0.00 | 33 | 1007.8 |
| 20260905035037 | 86 | 248 | 8.7 | 20.0 | 0.00 | 0.00 | 0.00 | 33 | 1007.9 |
| 20260905034536 | 86 | 292 | 9.6 | 20.0 | 0.00 | 0.00 | 0.00 | 34 | 1008.2 |
| 20260905034035 | 85 | 236 | 7.0 | 12.2 | 0.00 | 0.00 | 0.00 | 36 | 1008.2 |
| 20260905033533 | 85 | 284 | 3.5 | 11.3 | 0.00 | 0.00 | 0.00 | 37 | 1008.4 |
| 20260905033038 | 84 | 275 | 6.1 | 12.2 | 0.00 | 0.00 | 0.00 | 36 | 1008.5 |
| 20260905032531 | 84 | 248 | 4.3 | 12.2 | 0.00 | 0.00 | 0.00 | 37 | 1008.8 |
| 20260905032029 | 84 | 257 | 3.5 | 10.4 | 0.00 | 0.00 | 0.00 | 39 | 1008.9 |
| 20260905031530 | 84 | 338 | 1.7 | 8.7 | 0.00 | 0.00 | 0.00 | 40 | 1009.0 |
| 20260905031028 | 84 | 290 | 2.6 | 8.7 | 0.00 | 0.00 | 0.00 | 39 | 1009.2 |
| 20260905030526 | 83 | 257 | 1.7 | 9.6 | 0.00 | 0.00 | 0.00 | 38 | 1009.3 |
| 20260905030032 | 83 | 331 | 3.5 | 9.6 | 0.00 | 0.00 | 0.00 | 38 | 1009.5 |
| 20260905025523 | 83 | 355 | 3.5 | 10.4 | 0.00 | 0.00 | 0.00 | 38 | 1009.7 |
| 20260905025022 | 83 | 267 | 4.3 | 10.4 | 0.00 | 0.00 | 0.00 | 37 | 1009.9 |
| 20260905024520 | 83 | 351 | 1.7 | 9.6 | 0.00 | 0.00 | 0.00 | 38 | 1010.1 |
| 20260905024019 | 82 | 299 | 3.5 | 10.4 | 0.00 | 0.00 | 0.00 | 38 | 1010.3 |
| 20260905023518 | 81 | 321 | 4.3 | 13.9 | 0.00 | 0.00 | 0.00 | 38 | 1010.4 |
| 20260905023017 | 82 | 292 | 5.2 | 13.9 | 0.00 | 0.00 | 0.00 | 37 | 1010.5 |
| 20260905022515 | 82 | 304 | 3.5 | 9.6 | 0.00 | 0.00 | 0.00 | 37 | 1010.7 |
| 20260905022015 | 82 | 311 | 5.2 | 8.7 | 0.00 | 0.00 | 0.00 | 37 | 1010.9 |
| 20260905021512 | 81 | 300 | 4.3 | 12.2 | 0.00 | 0.00 | 0.00 | 37 | 1011.0 |
| 20260905021011 | 81 | 308 | 5.2 | 12.2 | 0.00 | 0.00 | 0.00 | 37 | 1011.2 |
| 20260905020510 | 81 | 317 | 6.1 | 13.0 | 0.00 | 0.00 | 0.00 | 37 | 1011.3 |
| 20260905020010 | 81 | 277 | 7.0 | 15.6 | 0.00 | 0.00 | 0.00 | 37 | 1011.3 |
| 20260905015511 | 81 | 280 | 5.2 | 11.3 | 0.00 | 0.00 | 0.00 | 36 | 1011.5 |
| 20260905015008 | 81 | 262 | 4.3 | 11.3 | 0.00 | 0.00 | 0.00 | 37 | 1011.5 |
| 20260905014506 | 81 | 323 | 4.3 | 11.3 | 0.00 | 0.00 | 0.00 | 37 | 1011.7 |
| 20260905014006 | 81 | 263 | 3.5 | 11.3 | 0.00 | 0.00 | 0.00 | 38 | 1011.8 |
| 20260905013504 | 80 | 288 | 4.3 | 10.4 | 0.00 | 0.00 | 0.00 | 38 | 1011.8 |
| 20260905013004 | 80 | 304 | 4.3 | 11.3 | 0.00 | 0.00 | 0.00 | 38 | 1012.0 |
| 20260905012604 | 80 | 261 | 5.2 | 11.3 | 0.00 | 0.00 | 0.00 | 38 | 1012.0 |
| 20260905012100 | 80 | 252 | 5.2 | 11.3 | 0.00 | 0.00 | 0.00 | 38 | 1012.2 |
| 20260905011558 | 79 | 275 | 4.3 | 14.8 | 0.00 | 0.00 | 0.00 | 38 | 1012.4 |
| 20260905011100 | 79 | 305 | 5.2 | 14.8 | 0.00 | 0.00 | 0.00 | 37 | 1012.5 |
| 20260905010555 | 79 | 213 | 3.5 | 7.8 | 0.00 | 0.00 | 0.00 | 39 | 1012.7 |
| 20260905005552 | 77 | 297 | 6.1 | 12.2 | 0.00 | 0.00 | 0.00 | 40 | 1013.1 |
| 20260905005052 | 77 | 267 | 5.2 | 10.4 | 0.00 | 0.00 | 0.00 | 40 | 1013.1 |
| 20260905004550 | 77 | 273 | 5.2 | 9.6 | 0.00 | 0.00 | 0.00 | 40 | 1013.3 |
| 20260905004048 | 76 | 238 | 5.2 | 11.3 | 0.00 | 0.00 | 0.00 | 41 | 1013.5 |
| 20260905003547 | 76 | 258 | 3.5 | 12.2 | 0.00 | 0.00 | 0.00 | 41 | 1013.7 |
| 20260905003046 | 76 | 297 | 5.2 | 8.7 | 0.00 | 0.00 | 0.00 | 41 | 1013.8 |
| 20260905002545 | 76 | 279 | 4.3 | 8.7 | 0.00 | 0.00 | 0.00 | 42 | 1013.9 |
| 20260905002043 | 75 | 274 | 3.5 | 11.3 | 0.00 | 0.00 | 0.00 | 42 | 1014.0 |
| 20260905001542 | 75 | 264 | 4.3 | 9.6 | 0.00 | 0.00 | 0.00 | 41 | 1014.0 |
| 20260905001041 | 75 | 259 | 4.3 | 9.6 | 0.00 | 0.00 | 0.00 | 41 | 1014.1 |
| 20260905000542 | 75 | 303 | 3.5 | 11.3 | 0.00 | 0.00 | 0.00 | 41 | 1014.3 |
| 20260905000037 | 75 | 232 | 4.3 | 11.3 | 0.00 | 0.00 | 0.00 | 40 | 1014.4 |
| 20260904235535 | 74 | 250 | 2.6 | 8.7 | 0.00 | 0.00 | 0.00 | 42 | 1014.4 |
| 20260904235034 | 74 | 264 | 4.3 | 8.7 | 0.00 | 0.00 | 0.00 | 43 | 1014.5 |
| 20260904234533 | 74 | 275 | 3.5 | 11.3 | 0.00 | 0.00 | 0.00 | 43 | 1014.7 |
| 20260904234036 | 73 | 255 | 5.2 | 11.3 | 0.00 | 0.00 | 0.00 | 43 | 1014.8 |
| 20260904233530 | 73 | 227 | 6.1 | 11.3 | 0.00 | 0.00 | 0.00 | 44 | 1014.9 |
| 20260904233029 | 73 | 284 | 2.6 | 7.0 | 0.00 | 0.00 | 0.00 | 48 | 1014.9 |
| 20260904232528 | 72 | 267 | 3.5 | 7.0 | 0.00 | 0.00 | 0.00 | 47 | 1015.0 |
| 20260904232025 | 71 | 273 | 2.6 | 7.0 | 0.00 | 0.00 | 0.00 | 49 | 1015.1 |
| 20260904231524 | 71 | 319 | 2.6 | 7.8 | 0.00 | 0.00 | 0.00 | 51 | 1015.2 |
| 20260904231023 | 70 | 257 | 3.5 | 7.8 | 0.00 | 0.00 | 0.00 | 52 | 1015.3 |
| 20260904230524 | 70 | 291 | 2.6 | 7.8 | 0.00 | 0.00 | 0.00 | 52 | 1015.4 |
| 20260904230020 | 70 | 238 | 3.5 | 7.8 | 0.00 | 0.00 | 0.00 | 51 | 1015.5 |
| 20260904225521 | 70 | 302 | 3.5 | 7.8 | 0.00 | 0.00 | 0.00 | 51 | 1015.5 |
| 20260904225019 | 70 | 290 | 1.7 | 7.8 | 0.00 | 0.00 | 0.00 | 51 | 1015.6 |
| 20260904224520 | 69 | 281 | 2.6 | 7.8 | 0.00 | 0.00 | 0.00 | 50 | 1015.6 |
| 20260904224018 | 69 | 304 | 3.5 | 7.8 | 0.00 | 0.00 | 0.00 | 51 | 1015.7 |
| 20260904223516 | 69 | 279 | 2.6 | 6.1 | 0.00 | 0.00 | 0.00 | 51 | 1015.7 |
| 20260904223016 | 69 | 275 | 3.5 | 6.1 | 0.00 | 0.00 | 0.00 | 51 | 1015.7 |
| 20260904222515 | 69 | 297 | 1.7 | 7.0 | 0.00 | 0.00 | 0.00 | 52 | 1015.7 |
| 20260904222015 | 69 | 246 | 2.6 | 7.0 | 0.00 | 0.00 | 0.00 | 52 | 1015.7 |
| 20260904221514 | 68 | 276 | 0.0 | 5.2 | 0.00 | 0.00 | 0.00 | 53 | 1015.7 |
| 20260904221013 | 68 | 319 | 0.9 | 5.2 | 0.00 | 0.00 | 0.00 | 54 | 1015.7 |
| 20260904220512 | 68 | 292 | 1.7 | 4.3 | 0.00 | 0.00 | 0.00 | 54 | 1015.7 |
| 20260904220011 | 68 | 296 | 1.7 | 5.2 | 0.00 | 0.00 | 0.00 | 54 | 1015.9 |
| 20260904215510 | 67 | 271 | 1.7 | 5.2 | 0.00 | 0.00 | 0.00 | 54 | 1015.9 |
| 20260904215010 | 67 | 282 | 1.7 | 6.1 | 0.00 | 0.00 | 0.00 | 54 | 1016.0 |
| 20260904214510 | 67 | 263 | 2.6 | 7.0 | 0.00 | 0.00 | 0.00 | 54 | 1016.0 |
| 20260904214010 | 67 | 298 | 3.5 | 9.6 | 0.00 | 0.00 | 0.00 | 52 | 1016.0 |
| 20260904213510 | 67 | 288 | 3.5 | 9.6 | 0.00 | 0.00 | 0.00 | 52 | 1016.0 |
| 20260904213009 | 67 | 279 | 3.5 | 8.7 | 0.00 | 0.00 | 0.00 | 52 | 1015.9 |
| 20260904212509 | 67 | 307 | 2.6 | 9.6 | 0.00 | 0.00 | 0.00 | 52 | 1015.7 |
| 20260904212007 | 67 | 290 | 2.6 | 9.6 | 0.00 | 0.00 | 0.00 | 52 | 1015.7 |
| 20260904211508 | 67 | 286 | 2.6 | 7.8 | 0.00 | 0.00 | 0.00 | 52 | 1015.8 |
| 20260904211008 | 66 | 269 | 3.5 | 9.6 | 0.00 | 0.00 | 0.00 | 52 | 1015.8 |
| 20260904210505 | 66 | 251 | 3.5 | 8.7 | 0.00 | 0.00 | 0.00 | 53 | 1015.7 |
| 20260904210010 | 66 | 265 | 3.5 | 8.7 | 0.00 | 0.00 | 0.00 | 53 | 1015.7 |
| 20260904205504 | 66 | 275 | 4.3 | 8.7 | 0.00 | 0.00 | 0.00 | 53 | 1015.6 |
| 20260904205002 | 66 | 232 | 4.3 | 8.7 | 0.00 | 0.00 | 0.00 | 53 | 1015.7 |
| 20260904204501 | 66 | 279 | 5.2 | 9.6 | 0.00 | 0.00 | 0.00 | 53 | 1015.7 |
| 20260904204100 | 65 | 238 | 3.5 | 10.4 | 0.00 | 0.00 | 0.00 | 54 | 1015.6 |
| 20260904203559 | 65 | 296 | 5.2 | 10.4 | 0.00 | 0.00 | 0.00 | 54 | 1015.5 |
| 20260904203100 | 65 | 255 | 4.3 | 7.8 | 0.00 | 0.00 | 0.00 | 56 | 1015.6 |
| 20260904202558 | 65 | 297 | 2.6 | 8.7 | 0.00 | 0.00 | 0.00 | 56 | 1015.5 |
| 20260904202057 | 65 | 280 | 4.3 | 9.6 | 0.00 | 0.00 | 0.00 | 56 | 1015.5 |
| 20260904201558 | 65 | 263 | 5.2 | 9.6 | 0.00 | 0.00 | 0.00 | 56 | 1015.6 |
| 20260904201055 | 64 | 250 | 5.2 | 8.7 | 0.00 | 0.00 | 0.00 | 56 | 1015.6 |
| 20260904200554 | 64 | 280 | 4.3 | 8.7 | 0.00 | 0.00 | 0.00 | 57 | 1015.7 |
| 20260904200110 | 64 | 259 | 5.2 | 9.6 | 0.00 | 0.00 | 0.00 | 58 | 1015.6 |
| 20260904195555 | 63 | 274 | 4.3 | 9.6 | 0.00 | 0.00 | 0.00 | 60 | 1015.8 |
| 20260904195049 | 62 | 261 | 4.3 | 7.8 | 0.00 | 0.00 | 0.00 | 61 | 1015.8 |
| 20260904194551 | 62 | 277 | 3.5 | 7.8 | 0.00 | 0.00 | 0.00 | 63 | 1015.9 |
| 20260904194048 | 61 | 255 | 3.5 | 7.0 | 0.00 | 0.00 | 0.00 | 64 | 1015.9 |
| 20260904193548 | 61 | 273 | 3.5 | 7.0 | 0.00 | 0.00 | 0.00 | 65 | 1016.0 |
| 20260904193048 | 60 | 281 | 1.7 | 7.0 | 0.00 | 0.00 | 0.00 | 66 | 1016.0 |
| 20260904192548 | 60 | 289 | 2.6 | 7.0 | 0.00 | 0.00 | 0.00 | 66 | 1016.0 |
| 20260904192047 | 60 | 294 | 1.7 | 5.2 | 0.00 | 0.00 | 0.00 | 65 | 1016.0 |
| 20260904191547 | 61 | 287 | 2.6 | 5.2 | 0.00 | 0.00 | 0.00 | 65 | 1016.0 |
| 20260904191047 | 60 | 285 | 1.7 | 4.3 | 0.00 | 0.00 | 0.00 | 66 | 1016.1 |
| 20260904190546 | 60 | 289 | 1.7 | 3.5 | 0.00 | 0.00 | 0.00 | 66 | 1016.1 |
| 20260904190050 | 60 | 268 | 1.7 | 3.5 | 0.00 | 0.00 | 0.00 | 66 | 1016.0 |
| 20260904185546 | 60 | 279 | 1.7 | 3.5 | 0.00 | 0.00 | 0.00 | 66 | 1015.9 |
| 20260904185046 | 60 | 275 | 1.7 | 6.1 | 0.00 | 0.00 | 0.00 | 66 | 1015.8 |
| 20260904184545 | 60 | 284 | 1.7 | 7.0 | 0.00 | 0.00 | 0.00 | 66 | 1015.8 |
| 20260904184045 | 60 | 279 | 2.6 | 8.7 | 0.00 | 0.00 | 0.00 | 66 | 1015.8 |
| 20260904183547 | 60 | 281 | 2.6 | 8.7 | 0.00 | 0.00 | 0.00 | 66 | 1015.8 |
| 20260904183044 | 60 | 286 | 1.7 | 7.8 | 0.00 | 0.00 | 0.00 | 66 | 1015.7 |
| 20260904182548 | 60 | 269 | 3.5 | 8.7 | 0.00 | 0.00 | 0.00 | 66 | 1015.7 |
| 20260904182043 | 60 | 326 | 4.3 | 8.7 | 0.00 | 0.00 | 0.00 | 66 | 1015.7 |
| 20260904181547 | 60 | 315 | 4.3 | 8.7 | 0.00 | 0.00 | 0.00 | 66 | 1015.7 |
| 20260904181043 | 60 | 254 | 4.3 | 8.7 | 0.00 | 0.00 | 0.00 | 66 | 1015.6 |
| 20260904180541 | 60 | 290 | 5.2 | 8.7 | 0.00 | 0.00 | 0.00 | 66 | 1015.7 |
| 20260904180047 | 60 | 304 | 2.6 | 7.8 | 0.00 | 0.00 | 0.00 | 67 | 1015.8 |
| 20260904175540 | 59 | 311 | 2.6 | 7.0 | 0.00 | 0.00 | 0.00 | 67 | 1015.8 |
| 20260904175040 | 59 | 267 | 2.6 | 7.0 | 0.00 | 0.00 | 0.00 | 67 | 1015.8 |
| 20260904174541 | 59 | 262 | 2.6 | 7.0 | 0.00 | 0.00 | 0.00 | 67 | 1015.8 |
| 20260904174040 | 59 | 267 | 2.6 | 7.8 | 0.00 | 0.00 | 0.00 | 67 | 1015.9 |
| 20260904173539 | 59 | 284 | 3.5 | 7.8 | 0.00 | 0.00 | 0.00 | 67 | 1015.8 |
| 20260904173054 | 59 | 283 | 2.6 | 6.1 | 0.00 | 0.00 | 0.00 | 67 | 1015.9 |
| 20260904172538 | 59 | 266 | 3.5 | 8.7 | 0.00 | 0.00 | 0.00 | 67 | 1016.0 |
| 20260904172038 | 59 | 281 | 2.6 | 8.7 | 0.00 | 0.00 | 0.00 | 67 | 1015.9 |
| 20260904171544 | 59 | 288 | 3.5 | 8.7 | 0.00 | 0.00 | 0.00 | 67 | 1015.8 |
| 20260904171036 | 59 | 275 | 2.6 | 8.7 | 0.00 | 0.00 | 0.00 | 67 | 1015.9 |
| 20260904170535 | 59 | 315 | 2.6 | 7.0 | 0.00 | 0.00 | 0.00 | 67 | 1015.9 |
| 20260904170039 | 59 | 305 | 2.6 | 7.0 | 0.00 | 0.00 | 0.00 | 66 | 1016.0 |
| 20260904165538 | 59 | 273 | 2.6 | 7.0 | 0.00 | 0.00 | 0.00 | 66 | 1016.1 |
| 20260904165033 | 60 | 324 | 3.5 | 7.0 | 0.00 | 0.00 | 0.00 | 65 | 1016.2 |
| 20260904164532 | 60 | 300 | 3.5 | 6.1 | 0.00 | 0.00 | 0.00 | 65 | 1016.2 |
| 20260904164031 | 60 | 293 | 3.5 | 5.2 | 0.00 | 0.00 | 0.00 | 64 | 1016.3 |
| 20260904163530 | 60 | 323 | 2.6 | 6.1 | 0.00 | 0.00 | 0.00 | 64 | 1016.3 |
| 20260904163030 | 60 | 294 | 1.7 | 3.5 | 0.00 | 0.00 | 0.00 | 63 | 1016.5 |
| 20260904162529 | 61 | 301 | 1.7 | 4.3 | 0.00 | 0.00 | 0.00 | 62 | 1016.5 |
| 20260904162027 | 61 | 310 | 2.6 | 6.1 | 0.00 | 0.00 | 0.00 | 62 | 1016.6 |
| 20260904161526 | 61 | 266 | 1.7 | 6.1 | 0.00 | 0.00 | 0.00 | 62 | 1016.8 |
| 20260904161028 | 61 | 277 | 2.6 | 4.3 | 0.00 | 0.00 | 0.00 | 61 | 1016.8 |
| 20260904160526 | 61 | 285 | 1.7 | 4.3 | 0.00 | 0.00 | 0.00 | 61 | 1016.9 |
| 20260904160028 | 62 | 327 | 2.6 | 7.0 | 0.00 | 0.00 | 0.00 | 61 | 1016.9 |
| 20260904155523 | 61 | 295 | 3.5 | 7.0 | 0.00 | 0.00 | 0.00 | 61 | 1017.1 |
| 20260904155022 | 61 | 307 | 2.6 | 6.1 | 0.00 | 0.00 | 0.00 | 62 | 1017.1 |
| 20260904154521 | 61 | 306 | 2.6 | 6.1 | 0.00 | 0.00 | 0.00 | 62 | 1017.1 |
| 20260904154020 | 61 | 293 | 2.6 | 4.3 | 0.00 | 0.00 | 0.00 | 63 | 1017.3 |
| 20260904153520 | 60 | 300 | 2.6 | 4.3 | 0.00 | 0.00 | 0.00 | 64 | 1017.4 |
| 20260904153019 | 60 | 303 | 2.6 | 4.3 | 0.00 | 0.00 | 0.00 | 65 | 1017.5 |
| 20260904152519 | 60 | 288 | 2.6 | 4.3 | 0.00 | 0.00 | 0.00 | 65 | 1017.6 |
| 20260904152018 | 60 | 299 | 2.6 | 4.3 | 0.00 | 0.00 | 0.00 | 66 | 1017.6 |
| 20260904151517 | 60 | 302 | 2.6 | 4.3 | 0.00 | 0.00 | 0.00 | 66 | 1017.6 |
| 20260904151017 | 60 | 297 | 2.6 | 5.2 | 0.00 | 0.00 | 0.00 | 66 | 1017.6 |
| 20260904150517 | 60 | 297 | 2.6 | 5.2 | 0.00 | 0.00 | 0.00 | 66 | 1017.6 |
| 20260904150016 | 60 | 281 | 2.6 | 3.5 | 0.00 | 0.00 | 0.00 | 67 | 1017.6 |
| 20260904145515 | 61 | 281 | 2.6 | 5.2 | 0.00 | 0.00 | 0.00 | 67 | 1017.5 |
| 20260904145014 | 61 | 277 | 2.6 | 5.2 | 0.00 | 0.00 | 0.00 | 66 | 1017.6 |
| 20260904144515 | 61 | 284 | 2.6 | 5.2 | 0.00 | 0.00 | 0.00 | 66 | 1017.7 |
| 20260904144013 | 61 | 290 | 2.6 | 4.3 | 0.00 | 0.00 | 0.00 | 66 | 1017.7 |
| 20260904143514 | 61 | 305 | 1.7 | 4.3 | 0.00 | 0.00 | 0.00 | 67 | 1017.8 |
| 20260904143017 | 61 | 329 | 2.6 | 7.0 | 0.00 | 0.00 | 0.00 | 68 | 1017.8 |
| 20260904142511 | 61 | 316 | 3.5 | 7.0 | 0.00 | 0.00 | 0.00 | 69 | 1017.7 |
| 20260904142013 | 61 | 311 | 2.6 | 4.3 | 0.00 | 0.00 | 0.00 | 71 | 1017.7 |
| 20260904141511 | 61 | 315 | 2.6 | 4.3 | 0.00 | 0.00 | 0.00 | 72 | 1017.7 |
| 20260904141009 | 61 | 317 | 0.9 | 3.5 | 0.00 | 0.00 | 0.00 | 72 | 1017.8 |
| 20260904140508 | 61 | 312 | 1.7 | 4.3 | 0.00 | 0.00 | 0.00 | 71 | 1017.8 |
| 20260904140008 | 61 | 314 | 1.7 | 4.3 | 0.00 | 0.00 | 0.00 | 71 | 1017.7 |
| 20260904135507 | 62 | 325 | 1.7 | 4.3 | 0.00 | 0.00 | 0.00 | 71 | 1017.7 |
| 20260904135006 | 62 | 314 | 1.7 | 4.3 | 0.00 | 0.00 | 0.00 | 70 | 1017.7 |
| 20260904134513 | 63 | 306 | 2.6 | 4.3 | 0.00 | 0.00 | 0.00 | 68 | 1017.7 |
| 20260904134006 | 63 | 286 | 1.7 | 2.6 | 0.00 | 0.00 | 0.00 | 68 | 1017.7 |
| 20260904133507 | 62 | 297 | 0.9 | 2.6 | 0.00 | 0.00 | 0.00 | 68 | 1017.8 |
| 20260904133009 | 62 | 297 | 0.9 | 2.6 | 0.00 | 0.00 | 0.00 | 69 | 1017.8 |
| 20260904132506 | 62 | 297 | 0.9 | 2.6 | 0.00 | 0.00 | 0.00 | 71 | 1017.8 |
| 20260904132107 | 61 | 279 | 1.7 | 3.5 | 0.00 | 0.00 | 0.00 | 73 | 1017.8 |
| 20260904131505 | 60 | 292 | 1.7 | 2.6 | 0.00 | 0.00 | 0.00 | 77 | 1017.8 |
| 20260904131005 | 60 | 279 | 0.0 | 0.0 | 0.00 | 0.00 | 0.00 | 79 | 1017.8 |
| 20260904130507 | 60 | 279 | 0.0 | 1.7 | 0.00 | 0.00 | 0.00 | 79 | 1017.8 |
| 20260904130004 | 60 | 279 | 0.0 | 4.3 | 0.00 | 0.00 | 0.00 | 78 | 1017.8 |
| 20260904125505 | 60 | 279 | 0.9 | 4.3 | 0.00 | 0.00 | 0.00 | 78 | 1017.9 |
| 20260904125004 | 61 | 286 | 2.6 | 5.2 | 0.00 | 0.00 | 0.00 | 76 | 1017.9 |
| 20260904124504 | 61 | 321 | 1.7 | 5.2 | 0.00 | 0.00 | 0.00 | 76 | 1017.8 |
| 20260904124003 | 60 | 273 | 0.0 | 0.0 | 0.00 | 0.00 | 0.00 | 78 | 1017.8 |
| 20260904123503 | 60 | 273 | 0.0 | 0.0 | 0.00 | 0.00 | 0.00 | 78 | 1017.9 |
| 20260904123003 | 60 | 273 | 0.0 | 0.0 | 0.00 | 0.00 | 0.00 | 78 | 1017.9 |
| 20260904122503 | 61 | 273 | 0.0 | 2.6 | 0.00 | 0.00 | 0.00 | 77 | 1018.1 |
| 20260904122005 | 61 | 273 | 0.0 | 2.6 | 0.00 | 0.00 | 0.00 | 76 | 1018.1 |
| 20260904121503 | 61 | 268 | 1.7 | 3.5 | 0.00 | 0.00 | 0.00 | 75 | 1018.1 |
| 20260904121002 | 62 | 323 | 0.9 | 3.5 | 0.00 | 0.00 | 0.00 | 75 | 1018.1 |
| 20260904120502 | 62 | 325 | 1.7 | 3.5 | 0.00 | 0.00 | 0.00 | 76 | 1018.2 |
| 20260904120004 | 61 | 309 | 1.7 | 3.5 | 0.00 | 0.00 | 0.00 | 76 | 1018.2 |
| 20260904115502 | 61 | 300 | 1.7 | 4.3 | 0.00 | 0.00 | 0.00 | 77 | 1018.2 |
| 20260904115003 | 61 | 296 | 1.7 | 4.3 | 0.00 | 0.00 | 0.00 | 78 | 1018.2 |
| 20260904114502 | 61 | 279 | 1.7 | 3.5 | 0.00 | 0.00 | 0.00 | 77 | 1018.2 |
| 20260904114003 | 61 | 286 | 1.7 | 3.5 | 0.00 | 0.00 | 0.00 | 77 | 1018.3 |
| 20260904113501 | 62 | 286 | 1.7 | 4.3 | 0.00 | 0.00 | 0.00 | 76 | 1018.4 |
| 20260904113101 | 62 | 292 | 1.7 | 7.0 | 0.00 | 0.00 | 0.00 | 75 | 1018.3 |
| 20260904112601 | 62 | 269 | 2.6 | 7.0 | 0.00 | 0.00 | 0.00 | 75 | 1018.4 |
| 20260904112101 | 62 | 284 | 2.6 | 7.0 | 0.00 | 0.00 | 0.00 | 76 | 1018.3 |
| 20260904111600 | 62 | 309 | 1.7 | 4.3 | 0.00 | 0.00 | 0.00 | 76 | 1018.2 |
| 20260904111059 | 62 | 265 | 0.9 | 5.2 | 0.00 | 0.00 | 0.00 | 76 | 1018.2 |
| 20260904110559 | 62 | 259 | 1.7 | 4.3 | 0.00 | 0.00 | 0.00 | 76 | 1018.2 |
| 20260904110059 | 62 | 289 | 1.7 | 5.2 | 0.00 | 0.00 | 0.00 | 75 | 1018.1 |
| 20260904105559 | 62 | 282 | 1.7 | 7.0 | 0.00 | 0.00 | 0.00 | 75 | 1018.1 |
| 20260904105101 | 62 | 254 | 3.5 | 7.0 | 0.00 | 0.00 | 0.00 | 75 | 1018.0 |
| 20260904104600 | 62 | 315 | 1.7 | 7.0 | 0.00 | 0.00 | 0.00 | 75 | 1018.0 |
| 20260904104059 | 62 | 285 | 1.7 | 3.5 | 0.00 | 0.00 | 0.00 | 75 | 1017.9 |
| 20260904103559 | 62 | 263 | 1.7 | 3.5 | 0.00 | 0.00 | 0.00 | 76 | 1017.8 |
| 20260904103059 | 62 | 313 | 0.9 | 5.2 | 0.00 | 0.00 | 0.00 | 75 | 1017.7 |
| 20260904102602 | 62 | 338 | 1.7 | 5.2 | 0.00 | 0.00 | 0.00 | 75 | 1017.7 |
| 20260904102100 | 62 | 333 | 0.9 | 4.3 | 0.00 | 0.00 | 0.00 | 75 | 1017.6 |
| 20260904101559 | 62 | 324 | 1.7 | 4.3 | 0.00 | 0.00 | 0.00 | 75 | 1017.6 |
| 20260904101058 | 62 | 316 | 1.7 | 4.3 | 0.00 | 0.00 | 0.00 | 76 | 1017.5 |
| 20260904100557 | 62 | 320 | 0.9 | 3.5 | 0.00 | 0.00 | 0.00 | 76 | 1017.4 |
| 20260904100105 | 62 | 325 | 0.0 | 2.6 | 0.00 | 0.00 | 0.00 | 75 | 1017.4 |
| 20260904095557 | 62 | 13 | 0.0 | 3.5 | 0.00 | 0.00 | 0.00 | 75 | 1017.3 |
| 20260904095057 | 62 | 336 | 0.0 | 3.5 | 0.00 | 0.00 | 0.00 | 75 | 1017.4 |
| 20260904094602 | 62 | 254 | 0.0 | 2.6 | 0.00 | 0.00 | 0.00 | 75 | 1017.3 |
| 20260904094057 | 62 | 257 | 0.9 | 4.3 | 0.00 | 0.00 | 0.00 | 74 | 1017.3 |
| 20260904093558 | 62 | 263 | 0.9 | 3.5 | 0.00 | 0.00 | 0.00 | 74 | 1017.2 |
| 20260904093057 | 62 | 261 | 0.9 | 5.2 | 0.00 | 0.00 | 0.00 | 74 | 1017.2 |
| 20260904092556 | 62 | 344 | 0.9 | 7.8 | 0.00 | 0.00 | 0.00 | 74 | 1017.1 |
| 20260904092056 | 62 | 279 | 2.6 | 7.0 | 0.00 | 0.00 | 0.00 | 75 | 1016.9 |
| 20260904091556 | 62 | 248 | 0.9 | 5.2 | 0.00 | 0.00 | 0.00 | 75 | 1017.0 |
| 20260904091057 | 62 | 314 | 0.0 | 5.2 | 0.00 | 0.00 | 0.00 | 75 | 1017.0 |
| 20260904090556 | 62 | 303 | 0.9 | 5.2 | 0.00 | 0.00 | 0.00 | 75 | 1016.9 |
| 20260904090105 | 62 | 298 | 0.9 | 2.6 | 0.00 | 0.00 | 0.00 | 75 | 1016.8 |
| 20260904085556 | 62 | 17 | 0.9 | 3.5 | 0.00 | 0.00 | 0.00 | 75 | 1016.9 |
| 20260904085056 | 62 | 334 | 0.0 | 3.5 | 0.00 | 0.00 | 0.00 | 75 | 1016.9 |
| 20260904084558 | 62 | 301 | 0.9 | 3.5 | 0.00 | 0.00 | 0.00 | 75 | 1016.9 |
| 20260904084054 | 62 | 337 | 0.0 | 4.3 | 0.00 | 0.00 | 0.00 | 76 | 1016.8 |
| 20260904083554 | 62 | 316 | 0.9 | 4.3 | 0.00 | 0.00 | 0.00 | 76 | 1016.8 |
| 20260904083137 | 62 | 319 | 0.0 | 2.6 | 0.00 | 0.00 | 0.00 | 76 | 1016.9 |
| 20260904082554 | 62 | 32 | 0.9 | 3.5 | 0.00 | 0.00 | 0.00 | 76 | 1016.8 |
| 20260904082053 | 62 | 284 | 0.0 | 3.5 | 0.00 | 0.00 | 0.00 | 76 | 1016.8 |
| 20260904081554 | 62 | 30 | 0.9 | 2.6 | 0.00 | 0.00 | 0.00 | 76 | 1016.7 |
| 20260904081053 | 62 | 5 | 0.0 | 3.5 | 0.00 | 0.00 | 0.00 | 76 | 1016.6 |
| 20260904080552 | 62 | 13 | 0.0 | 4.3 | 0.00 | 0.00 | 0.00 | 76 | 1016.5 |
| 20260904080052 | 62 | 317 | 0.9 | 6.1 | 0.00 | 0.00 | 0.00 | 76 | 1016.4 |
| 20260904075552 | 62 | 328 | 0.9 | 6.1 | 0.00 | 0.00 | 0.00 | 76 | 1016.4 |
| 20260904075052 | 62 | 51 | 0.9 | 4.3 | 0.00 | 0.00 | 0.00 | 75 | 1016.4 |
| 20260904074551 | 63 | 23 | 0.9 | 4.3 | 0.00 | 0.00 | 0.00 | 75 | 1016.5 |
| 20260904074052 | 63 | 153 | 0.0 | 2.6 | 0.00 | 0.00 | 0.00 | 74 | 1016.4 |
| 20260904073552 | 63 | 342 | 0.0 | 4.3 | 0.00 | 0.00 | 0.00 | 74 | 1016.4 |
| 20260904073058 | 63 | 141 | 0.9 | 4.3 | 0.00 | 0.00 | 0.00 | 73 | 1016.3 |
| 20260904072550 | 64 | 325 | 0.9 | 4.3 | 0.00 | 0.00 | 0.00 | 73 | 1016.3 |
| 20260904072051 | 64 | 132 | 1.7 | 4.3 | 0.00 | 0.00 | 0.00 | 73 | 1016.4 |
| 20260904071616 | 64 | 155 | 0.9 | 6.1 | 0.00 | 0.00 | 0.00 | 72 | 1016.3 |
| 20260904071050 | 64 | 71 | 1.7 | 6.1 | 0.00 | 0.00 | 0.00 | 72 | 1016.2 |
| 20260904070549 | 64 | 57 | 1.7 | 6.1 | 0.00 | 0.00 | 0.00 | 71 | 1016.1 |
| 20260904070111 | 65 | 60 | 0.9 | 5.2 | 0.00 | 0.00 | 0.00 | 71 | 1016.2 |
| 20260904065549 | 65 | 65 | 1.7 | 5.2 | 0.00 | 0.00 | 0.00 | 70 | 1016.2 |